Total_Precipitation_Accumulation
3.00 3.08 3.12 3.22 3.00 2.89 2.83 2.53 2.21 2.28 2.37 2.28 1.98 1.90 1.95 1.95 2.08 2.34 2.64 2.56 2.44 2.59 2.91 3.17 3.39 3.44 3.40 3.42 3.38 3.34 3.26 3.18 3.12 2.90 2.63 2.38 2.21 2.16 2.19 2.30 2.31 2.22 2.16
3.32 3.36 3.43 3.43 3.22 3.17 3.11 2.84 2.61 2.72 2.64 2.53 2.26 2.12 2.12 2.17 2.24 2.40 2.65 2.69 2.34 2.17 2.47 2.96 3.31 3.55 3.63 3.67 3.51 3.35 3.32 3.27 3.24 3.03 2.81 2.57 2.37 2.26 2.19 2.20 2.27 2.24 2.15
3.57 3.62 3.71 3.60 3.38 3.28 3.28 3.21 3.06 2.98 2.85 2.60 2.45 2.43 2.40 2.27 2.26 2.49 2.67 2.72 2.52 2.34 2.41 2.60 2.87 3.21 3.66 3.87 3.76 3.61 3.48 3.43 3.33 3.16 2.99 2.79 2.56 2.35 2.24 2.18 2.18 2.19 2.16
3.48 3.74 3.81 3.61 3.39 3.29 3.40 3.54 3.39 3.25 3.17 3.05 2.79 2.55 2.45 2.43 2.36 2.38 2.41 2.51 2.66 2.55 2.55 2.49 2.62 2.86 3.25 3.59 3.84 3.90 3.76 3.59 3.46 3.31 3.19 3.02 2.85 2.59 2.38 2.31 2.25 2.20 2.18
3.58 3.81 3.91 3.88 3.58 3.54 3.65 3.52 3.72 3.52 3.47 3.24 2.81 2.65 2.41 2.25 2.29 2.25 2.32 2.33 2.38 2.42 2.45 2.45 2.56 2.65 2.89 3.24 3.53 3.73 3.79 3.72 3.49 3.26 3.20 3.15 2.99 2.77 2.58 2.46 2.35 2.24 2.17
3.71 3.93 3.92 3.99 3.84 3.86 4.07 4.06 4.07 3.83 3.50 3.28 2.85 2.64 2.39 2.15 2.07 2.12 2.07 2.07 2.06 2.04 2.10 2.19 2.38 2.37 2.53 2.77 3.16 3.48 3.92 4.01 3.75 3.53 3.40 3.22 3.01 2.75 2.57 2.52 2.47 2.40 2.32
4.31 4.53 4.33 4.29 4.10 4.03 4.08 4.08 3.95 3.84 3.65 3.55 3.43 3.04 2.54 2.13 1.95 1.83 1.86 1.91 1.86 1.81 1.89 2.06 2.13 2.15 2.21 2.29 2.46 2.85 3.54 3.90 3.83 3.68 3.63 3.44 3.14 2.88 2.68 2.62 2.61 2.58 2.48
4.93 4.84 4.78 4.47 4.28 4.17 4.03 3.93 3.83 3.74 3.51 3.47 3.54 3.46 3.00 2.61 2.11 1.66 1.77 1.80 1.77 1.83 1.82 1.76 1.81 1.82 1.78 1.95 2.02 2.34 2.79 3.11 3.48 3.73 3.79 3.51 3.28 3.09 2.95 2.81 2.76 2.71 2.66
4.74 4.62 4.55 4.38 4.27 4.10 3.94 3.89 3.82 3.75 3.56 3.48 3.52 3.68 3.46 2.92 2.36 1.95 1.76 1.73 1.78 1.83 1.81 1.75 1.69 1.68 1.68 1.80 1.86 2.07 2.37 2.49 2.84 3.22 3.51 3.35 3.20 3.23 3.18 3.12 3.05 3.00 2.92
4.43 4.28 4.34 4.27 4.15 3.94 3.79 3.50 3.48 3.57 3.70 3.50 3.37 3.15 3.00 2.74 2.63 2.39 2.10 1.91 1.80 1.75 1.74 1.68 1.59 1.65 1.72 1.86 2.01 2.01 2.08 2.13 2.33 2.60 2.80 2.86 2.89 3.01 3.12 3.05 3.09 3.16 3.17
4.12 3.85 3.86 3.82 3.65 3.46 3.33 3.18 3.15 3.19 3.29 3.27 3.23 3.09 2.95 2.76 2.53 2.47 2.31 2.07 1.95 1.79 1.70 1.71 1.69 1.70 1.76 1.80 1.89 1.90 1.94 1.95 2.04 2.17 2.25 2.38 2.54 2.74 2.91 2.99 3.09 3.23 3.36
3.90 3.60 3.29 3.24 3.19 3.04 2.85 2.81 2.80 2.77 2.84 2.91 2.97 2.89 2.73 2.63 2.55 2.56 2.44 2.24 2.13 1.95 1.82 1.80 1.76 1.71 1.73 1.68 1.61 1.77 1.73 1.73 1.78 1.89 1.96 2.01 2.13 2.32 2.49 2.68 2.96 3.17 3.30
3.38 3.12 2.91 2.80 2.71 2.66 2.55 2.50 2.50 2.38 2.34 2.42 2.41 2.50 2.50 2.39 2.28 2.38 2.48 2.37 2.15 2.01 1.91 1.79 1.66 1.61 1.57 1.62 1.67 1.68 1.54 1.51 1.46 1.49 1.59 1.71 1.86 2.01 2.08 2.22 2.41 2.69 2.91
2.86 2.63 2.54 2.34 2.12 2.00 1.95 2.07 2.13 2.09 2.06 2.04 1.97 2.18 2.25 2.18 2.14 2.16 2.24 2.44 2.39 2.17 2.05 1.84 1.66 1.59 1.56 1.57 1.67 1.53 1.41 1.39 1.34 1.35 1.39 1.44 1.59 1.79 1.88 1.89 1.86 1.94 2.11
2.28 2.19 2.08 2.00 1.91 1.80 1.74 1.76 1.81 1.90 1.92 1.84 1.83 1.94 1.94 1.89 1.90 1.93 2.03 2.22 2.47 2.40 2.19 1.92 1.82 1.73 1.69 1.68 1.76 1.52 1.49 1.44 1.39 1.41 1.42 1.45 1.52 1.70 1.79 1.78 1.64 1.55 1.54
1.97 1.85 1.77 1.71 1.72 1.67 1.65 1.72 1.70 1.74 1.82 1.74 1.70 1.69 1.66 1.60 1.68 1.69 1.79 1.92 2.12 2.30 2.19 1.80 1.72 1.73 1.73 1.63 1.83 1.64 1.57 1.54 1.46 1.62 1.73 1.68 1.65 1.83 1.97 1.99 1.80 1.63 1.58
1.73 1.63 1.55 1.50 1.47 1.49 1.50 1.53 1.49 1.46 1.43 1.41 1.34 1.33 1.35 1.44 1.57 1.55 1.58 1.71 1.92 2.13 2.21 1.83 1.67 1.77 1.91 1.85 1.88 1.79 1.66 1.67 1.64 1.98 2.11 2.30 2.07 1.98 2.06 2.09 2.01 1.78 1.62
1.54 1.50 1.38 1.33 1.30 1.25 1.22 1.20 1.22 1.24 1.24 1.21 1.22 1.29 1.29 1.35 1.46 1.49 1.54 1.60 1.76 2.02 2.20 2.13 1.87 1.89 1.94 1.91 1.99 1.94 1.73 1.62 1.65 2.07 2.28 2.57 2.51 2.25 2.24 2.12 2.02 1.84 1.68
1.38 1.32 1.27 1.25 1.20 1.21 1.12 1.06 1.06 1.12 1.13 1.10 1.16 1.23 1.29 1.51 1.51 1.50 1.56 1.59 1.69 1.81 2.13 2.19 1.98 1.99 2.04 2.05 2.23 2.06 1.88 1.86 1.58 1.87 2.26 2.57 2.66 2.65 2.71 2.58 2.33 1.99 1.75
1.33 1.28 1.26 1.18 1.14 1.13 1.10 1.06 1.03 1.07 1.09 1.09 1.14 1.22 1.30 1.47 1.53 1.60 1.58 1.65 1.71 1.85 2.04 2.18 2.12 2.11 2.17 2.22 2.26 2.19 2.05 1.91 1.72 1.65 2.10 2.50 2.79 2.85 2.99 3.07 2.81 2.36 1.99
1.24 1.23 1.22 1.15 1.14 1.10 1.04 1.03 1.01 1.03 1.12 1.15 1.11 1.12 1.17 1.27 1.37 1.38 1.28 1.38 1.58 1.84 1.91 2.10 2.16 2.19 2.17 2.26 2.15 1.94 1.88 1.86 1.70 1.59 1.80 2.14 2.81 3.12 3.15 3.22 3.13 2.64 2.20
1.32 1.28 1.23 1.17 1.11 0.90 0.98 1.00 0.98 1.05 1.11 1.13 1.12 1.12 1.06 1.02 0.99 1.01 1.05 1.11 1.29 1.59 1.95 2.20 2.15 2.13 2.04 1.97 1.99 1.94 1.96 1.99 1.93 1.62 1.59 1.82 2.37 3.15 3.34 3.25 3.19 2.60 2.08
1.34 1.26 1.20 1.19 1.13 1.00 0.99 0.93 0.94 1.06 1.16 1.22 1.28 1.24 0.97 0.82 0.93 0.97 1.02 1.06 1.18 1.37 1.70 2.10 2.20 2.00 1.96 1.92 2.00 2.01 2.07 2.10 1.98 1.68 1.75 1.95 2.26 2.91 3.04 2.99 2.91 2.28 1.82
1.33 1.32 1.28 1.25 1.23 1.09 0.99 0.89 0.92 1.00 1.14 1.15 1.15 1.18 1.18 1.08 1.00 1.08 1.14 1.21 1.31 1.42 1.53 1.65 1.99 1.85 1.65 1.71 1.85 1.92 2.06 2.11 1.98 1.78 1.83 2.10 2.29 2.72 2.67 2.71 2.59 2.11 1.73
1.31 1.26 1.24 1.25 1.30 1.22 1.05 0.94 0.88 0.91 1.04 1.06 1.01 1.00 0.98 1.02 1.11 1.27 1.38 1.59 1.69 1.77 1.64 1.78 1.95 1.89 1.75 1.72 1.67 1.82 2.14 2.21 2.07 1.90 1.89 2.18 2.30 2.39 2.46 2.50 2.22 2.01 1.70
1.28 1.23 1.21 1.25 1.24 1.13 0.97 0.82 0.78 0.81 0.96 1.01 1.07 1.03 0.92 0.89 1.04 1.21 1.43 1.76 1.92 1.98 1.82 1.90 2.15 2.16 1.98 2.00 2.01 1.96 2.20 2.32 2.22 2.12 1.87 1.99 2.17 2.19 2.36 2.25 2.06 1.91 1.81